Find Starlink 31738

NORAD ID: 59535 Int'l Des: 2024-074 Owner: SPXS Country: US Constellation: starlink operational
LEOCIRCULAR

現在のビュー

3D地球を読み込み中...

About Starlink 31738

Starlink 31738 (NORAD 59535) is a starlink constellation satellite (v2 mini) launched Apr 18, 2024 by SPXS of US. It operates in LEO, CIRCULAR orbit with a mass of 730.00 kg.

次回通過

Passes for default location (London). Set your location on the main map for personalized predictions.

高度履歴

Loading altitude history...

軌道要素

1 59535U 24074B 26263.18803861 -.00000003 00000-0 94030-5 0 9993
2 59535 43.0029 321.2749 0001373 276.0399 84.0296 15.27572904135803
Epoch: Sep 20, 2026 • Age: 13 hours

現在のステータス

高度 487.1 km
遠地点 / 近地点 N/A
速度 7.63 km/s
衛星直下点 42.99°N, 152.75°E
打ち上げ日 Apr 18, 2024
運用期間 2.4 years
タイプ internet

技術仕様

分類 Payload
質量 730.00 kg
乾燥質量 700.00 kg
長さ 0.30 m
スパン 29.00 m
形状 ? Box + pan
製造者 SPXS
バスタイプ Starlink V2M
フェーズステータス In Orbit
所有者/国 SPXS/US

Most Searched